This demonstration page uses our WeatherBlox Daily Observations layout. Learn more.

Left ArrowRight Arrow

39.01783, -85.05884

Hourly Observations for December 11, 2016

Temp ( °F °C ) Dew Point ( °F °C ) Humidity (%) Winds ( mph kmh ) Pressure ( in mb ) Visibility ( mi km ) Precip ( " mm )
12:52 am 00:52 Cloudy 29 -1.7 17 -8.3 61 61 SE 7 11 30.37 1029 10 16 N/A
1:52 am 01:52 Cloudy 29 -1.7 17 -8.3 61 61 ENE 6 9 30.37 1029 10 16 N/A
2:52 am 02:52 Cloudy 29 -1.7 18 -7.8 63 63 E 7 11 30.36 1028 10 16 N/A
3:52 am 03:52 Cloudy 29 -1.7 17 -8.3 61 61 ESE 8 13 30.32 1027 10 16 N/A
4:52 am 04:52 Cloudy 29 -1.7 18 -7.8 63 63 SE 10 17 30.32 1027 10 16 N/A
5:52 am 05:52 Cloudy 30 -1.1 18 -7.8 61 61 SE 10 17 30.30 1026 10 16 N/A
6:52 am 06:52 Cloudy 30 -1.1 18 -7.8 61 61 SE 9 15 30.29 1026 10 16 N/A
7:52 am 07:52 Cloudy 30 -1.1 18 -7.8 61 61 SSE 13 20 30.27 1025 10 16 N/A
8:52 am 08:52 Cloudy 31 -0.6 18 -7.8 59 59 SSE 10 17 30.25 1024 10 16 N/A
9:52 am 09:52 Mostly Cloudy 33 0.6 18 -7.8 54 54 SSE 10 17 30.21 1023 10 16 N/A
10:52 am 10:52 Cloudy 36 2.2 18 -7.8 48 48 S 15 24 30.18 1022 10 16 N/A
11:52 am 11:52 Cloudy 40 4.4 19 -7.2 43 43 S 18 30 30.10 1019 10 16 N/A
12:52 pm 12:52 Cloudy with Light Rain 42 5.6 20 -6.7 41 41 S 9 15 30.07 1018 10 16 N/A
1:52 pm 13:52 Cloudy 42 5.6 24 -4.4 49 49 S 5 7 30.03 1017 10 16 N/A
2:52 pm 14:52 Cloudy with Light Rain 42 5.6 29 -1.7 60 60 N N/A 30.00 1016 8 13 0.01 0.25
3:52 pm 15:52 Cloudy with Light Rain 42 5.6 26 -3.3 53 53 N N/A 29.98 1015 9 14 N/A
4:52 pm 16:52 Cloudy with Light Rain 42 5.6 32 undefined 68 68 SE 5 7 29.95 1014 10 16 N/A
5:52 pm 17:52 Cloudy with Light Rain 40 4.4 34 1.1 79 79 N N/A 29.93 1014 10 16 0.02 0.51
6:52 pm 18:52 Cloudy with Light Rain 41 5 33 0.6 73 73 SE 6 9 29.91 1013 10 16 N/A
7:52 pm 19:52 Cloudy with Drizzle 41 5 35 1.7 79 79 SW 5 7 29.90 1013 9 14 0.01 0.25
8:52 pm 20:52 Cloudy with Light Rain 39 3.9 38 3.3 96 96 SSW 6 9 29.87 1012 4 6 0.04 1.02
9:52 pm 21:52 Cloudy with Drizzle 40 4.4 39 3.9 97 97 SW 7 11 29.86 1011 9 14 0.03 0.76
10:52 pm 22:52 Cloudy with Light Rain 41 5 39 3.9 93 93 WSW 10 17 29.85 1011 7 11 0.03 0.76
11:45 pm 23:45 Cloudy with Light Rain 42 5.6 40 4.4 92 92 SW 13 20 29.85 1011 9 14 0.01 0.25
11:52 pm 23:52 Cloudy with Light Rain 42 5.6 40 4.4 92 92 SW 13 20 29.85 1011 8 13 0.01 0.25

Powered by AerisWeather